Regional Weather Roundup
Issued by NWS

Home | Current Version | Previous Version | Text Only | Print | Product List | Glossary On
Versions: 1 2 3 4 5 6 7 8 9 10 11 12 13 14 15 16 17 18 19 20 21 22 23 24 25 26 27 28 29 30 31 32 33 34 35 36 37 38 39 40 41 42 43 44 45 46 47 48 49 50
375
ASUS43 KOAX 190710
RWRNE

WEATHER ROUNDUP FOR NEBRASKA
NATIONAL WEATHER SERVICE OMAHA NE
100 AM CST THU JAN 19 2017

NOTES: SATELLITE DATA IS BEING USED TO AUGMENT CLOUD COVER ABOVE
       12000 FEET.
       "FAIR" INDICATES FEW OR NO CLOUDS BELOW 12,000 FEET WITH NO
       SIGNIFICANT WEATHER AND/OR OBSTRUCTIONS TO VISIBILITY.

  * THESE STATIONS DO NOT REPORT WEATHER SUCH AS RAIN...SNOW OR FOG.

NEZ001>004-019>022-054>056-190800-
NEBRASKA PANHANDLE

CITY           SKY/WX    TMP DP  RH WIND       PRES   REMARKS
SCOTTSBLUFF    CLOUDY    26  19  74 NW7       29.64F WCI  18
ALLIANCE       CLOUDY    22  18  85 SW5       29.63S WCI  16
CHADRON        CLOUDY    23  18  81 SW3       29.64R
KIMBALL        CLOUDY    30  25  82 W10       29.66F WCI  21
SIDNEY         CLOUDY    22  19  89 NW8       29.66S WCI  12
$$

NEZ057>060-069>072-079>082-190800-
SOUTHWEST NEBRASKA

CITY           SKY/WX    TMP DP  RH WIND       PRES   REMARKS
NORTH PLATTE   CLEAR     31  30  96 E3        29.69F FOG
IMPERIAL       CLOUDY    28  26  92 W3        29.68F
LEXINGTON      CLEAR     36  34  94 SE6       29.72F WCI  31
MCCOOK         FOG       30  30 100 CALM      29.70F VSB<1/4
OGALLALA       CLOUDY    25  23  92 W3        29.68F
$$

NEZ005>010-023>029-035>040-094-190800-
NORTH CENTRAL NEBRASKA

CITY           SKY/WX    TMP DP  RH WIND       PRES   REMARKS
VALENTINE      CLOUDY    32  25  75 SW12      29.63F WCI  23
AINSWORTH      CLEAR     34  32  94 S14       29.66F WCI  24
BROKEN BOW     CLEAR     35  33  92 SE6       29.71F FOG     WCI  30
O`NEILL        CLEAR     36  35  96 S8        29.71F WCI  30
ORD            CLEAR     33  31  92 E3        29.73F FOG
THEDFORD       CLOUDY    34  32  94 S6        29.68S WCI  29
$$

NEZ041-046>049-061>064-073>077-083>087-190800-
SOUTH CENTRAL NEBRASKA

CITY           SKY/WX    TMP DP  RH WIND       PRES   REMARKS
GRAND ISLAND   CLEAR     37  35  92 S12       29.77F WCI  29
AURORA         CLEAR     37  34  90 S10       29.78F WCI  29
HASTINGS       CLEAR     37  34  89 S12       29.78F WCI  29
HEBRON         PTCLDY    39  36  88 S8        29.82F WCI  33
HOLDREGE       MOCLDY    38  37  94 S12       29.73F WCI  30
KEARNEY *      MOCLDY    36  34  93 S9        29.75F WCI  29
YORK           PTCLDY    37  36  93 S8        29.80F WCI  31
$$

NEZ011>018-030>034-042>045-190800-
NORTHEAST NEBRASKA

CITY           SKY/WX    TMP DP  RH WIND       PRES   REMARKS
NORFOLK        CLEAR     38  33  82 S16       29.76F WCI  29
ALBION         PTCLDY    36  33  90 S9        29.77F WCI  29
BLAIR          CLEAR     38  34  87 SE9       29.84F WCI  31
FREMONT        CLEAR     36  32  85 SE8       29.83F WCI  30
TEKAMAH        CLEAR     34  32  92 SE6       29.84F WCI  29
WAYNE          CLEAR     35  33  92 CALM      29.79S
$$

NEZ050>053-065>068-078-088>093-190800-
SOUTHEAST NEBRASKA

CITY           SKY/WX    TMP DP  RH WIND       PRES   REMARKS
LINCOLN        CLEAR     36  32  85 S12       29.84F WCI  28
OMAHA EPPLEY   CLEAR     36  31  82 SE12      29.86F WCI  28
BEATRICE       MOCLDY    37  34  87 SE7       29.85F WCI  32
FALLS CITY     CLOUDY    36  35  96 SE3       29.90F
NEBRASKA CITY  PTCLDY    33  33 100 S7        29.87F FOG     WCI  27
PLATTSMOUTH    PTCLDY    36  32  85 SE12      29.86F WCI  28
$$

NEZ044-045-051>053-067-190800-
OMAHA AREA

CITY           SKY/WX    TMP DP  RH WIND       PRES   REMARKS
OMAHA EPPLEY   CLEAR     36  31  82 SE12      29.86F WCI  28
BLAIR          CLEAR     38  34  87 SE9       29.84F WCI  31
FREMONT        CLEAR     36  32  85 SE8       29.83F WCI  30
MILLARD        CLEAR     39  35  84 SE7       29.86S WCI  34
OFFUTT AFB     CLEAR     35  35 100 SE6       29.87S WCI  30
PLATTSMOUTH    PTCLDY    36  32  85 SE12      29.86F WCI  28
WAHOO          FAIR      37  32  84 SE9       29.84S WCI  30
$$




USA.gov is the U.S. government's official web portal to all federal, state and local government web resources and services.